RH
8 8 9 9 10 10 11 12 13 13 12 16 21 21 23 29 30 26 30 15 9 7 5 7 14 15 13 12 12 11 10 10 10 9 9 9 10 9 8 7 7 7 7 8 8 9 9 12 16
7 7 8 8 9 10 11 12 12 12 11 12 20 17 27 29 33 32 31 11 8 7 6 6 12 16 15 13 12 12 11 11 11 10 10 9 8 8 8 9 9 10 9 8 8 9 10 10 9
6 7 7 8 8 8 10 11 12 11 10 9 21 34 31 30 35 37 37 10 8 7 6 6 10 16 16 14 13 13 12 12 12 12 11 11 11 11 12 12 12 11 11 11 10 10 10 9 9
4 6 8 8 7 6 7 9 11 10 9 12 16 28 37 35 36 38 36 16 9 8 7 7 10 15 17 17 14 13 13 13 14 13 13 13 14 14 14 15 15 14 13 11 11 11 11 11 11
7 5 8 8 6 5 6 7 7 8 8 11 27 26 27 38 39 37 37 18 10 8 8 7 10 14 17 18 18 16 14 14 14 14 15 15 15 16 17 18 18 16 15 13 13 12 13 14 13
8 6 7 7 5 5 5 5 5 6 7 10 20 29 29 38 42 36 31 14 10 10 9 8 10 14 16 19 19 19 19 17 15 15 16 16 17 18 18 18 17 16 16 16 16 16 17 17 18
8 9 8 6 4 4 4 5 5 5 6 7 13 22 23 44 40 30 33 13 10 10 10 9 9 12 17 19 20 20 20 20 20 18 17 18 18 20 20 20 20 18 18 18 18 19 20 22 22
7 10 9 9 7 5 4 4 4 5 5 6 14 14 29 44 41 29 25 14 10 10 10 10 9 11 14 16 20 22 22 21 22 22 23 22 20 20 21 22 23 23 23 24 24 24 23 23 23
7 8 6 6 7 7 6 5 4 4 4 5 12 16 18 39 48 35 24 16 10 10 10 10 10 10 12 15 18 20 22 23 22 22 22 23 24 25 25 24 24 24 25 25 26 26 25 24 24
26 10 7 7 6 7 7 7 6 4 4 5 12 18 15 30 52 34 29 23 18 11 11 10 10 10 10 11 14 16 19 21 22 23 23 22 22 23 25 26 27 28 28 28 28 28 28 28 28
24 18 21 17 12 8 6 6 6 5 3 4 11 18 18 27 44 40 45 28 24 15 11 11 10 10 10 8 10 12 14 18 20 22 23 24 23 23 23 23 23 25 26 28 28 29 30 29 28
7 8 17 27 19 15 12 8 6 6 4 4 8 16 46 17 21 33 51 45 36 21 11 11 10 10 10 9 8 9 11 13 16 19 22 23 24 24 24 23 23 24 24 25 25 26 26 26 26
2 2 13 29 35 26 14 10 8 6 7 3 6 18 42 37 28 42 44 43 40 33 18 11 11 10 10 9 8 9 11 13 15 19 22 23 24 25 25 25 24 24 24 25 25 26 26 26 27
5 4 4 7 26 30 31 20 11 12 6 5 4 25 29 54 47 47 47 41 42 33 21 13 12 11 11 10 9 11 14 15 16 18 21 23 24 26 27 27 27 26 26 26 26 26 27 28 29
6 6 7 9 12 24 35 31 23 14 10 6 6 18 20 47 55 47 59 55 56 52 44 44 23 13 12 12 9 12 16 17 17 18 20 23 24 25 26 27 28 30 30 30 31 31 32 34 36
15 19 38 30 32 30 24 10 10 17 16 8 6 8 18 18 51 52 55 55 57 57 55 60 55 32 16 13 11 12 16 18 19 20 20 21 23 22 22 24 26 29 31 32 32 33 33 33 33
35 30 24 37 58 65 54 10 8 15 27 18 8 7 8 19 20 51 42 50 60 59 55 63 68 56 30 16 14 13 16 18 20 21 21 20 21 20 17 19 22 25 27 28 28 27 26 27 27
54 52 51 52 66 53 85 67 49 39 32 32 28 15 7 9 19 20 38 42 53 65 51 51 51 58 62 25 18 16 14 18 20 22 22 20 18 16 17 18 19 20 19 21 23 24 26 27 29
77 68 67 59 80 75 60 76 82 76 38 36 34 23 19 8 11 20 28 48 52 59 47 39 37 44 55 49 22 15 13 16 20 22 22 22 16 15 15 17 18 16 15 18 21 24 23 24 26
83 79 68 64 61 76 78 56 61 68 75 55 30 35 18 16 9 17 29 59 51 50 42 35 28 40 61 61 46 26 18 15 17 20 22 23 22 18 15 13 16 17 16 16 17 17 19 22 26
90 86 70 69 63 49 94 83 41 59 55 67 64 35 28 21 15 12 16 38 57 48 47 44 42 32 36 46 61 57 42 24 17 16 20 22 23 22 15 14 14 16 17 16 18 19 20 26 32
97 79 70 68 68 90 74 92 66 49 60 55 52 55 48 39 21 15 16 17 24 42 43 46 38 27 26 33 38 43 58 48 26 18 16 19 23 23 22 16 16 17 18 16 19 23 24 30 34
92 81 67 66 61 97 80 91 96 75 67 65 59 54 46 36 26 17 15 14 16 17 20 20 19 19 19 21 25 24 26 24 39 54 52 32 20 22 24 24 18 19 19 18 19 24 29 34 38
89 89 72 61 69 96 79 66 97 90 96 78 72 60 43 39 31 19 16 14 15 15 15 17 16 16 16 17 19 20 19 18 20 29 52 59 58 48 30 25 26 21 21 22 25 28 34 35 38
82 95 72 95 89 92 56 66 99 98 96 93 83 66 53 44 39 29 17 14 15 16 17 14 15 15 14 14 14 13 17 18 16 26 37 66 56 63 62 40 27 29 27 27 28 32 36 40 41
88 81 66 77 91 71 50 85 98 100 91 87 91 95 72 51 42 39 34 26 19 17 17 17 15 14 13 16 16 16 16 16 16 20 35 33 55 62 56 66 73 49 37 36 38 39 42 47 45
83 94 87 92 63 68 67 96 98 98 92 82 81 84 83 78 62 46 38 32 30 25 25 19 17 16 16 15 15 16 17 17 15 16 31 37 54 60 66 79 83 80 66 43 39 40 45 54 60
85 92 96 98 97 96 97 91 98 96 97 89 74 69 75 77 86 86 76 58 48 33 27 24 21 20 19 18 17 18 16 20 21 19 25 54 60 60 75 93 99 89 92 93 68 48 56 70 63
56 63 85 97 95 95 95 94 97 96 100 96 97 95 74 75 68 66 74 88 98 98 75 58 32 32 30 38 37 39 42 36 68 79 56 57 70 63 78 90 89 88 54 55 62 71 83 99 90
35 48 59 95 95 86 95 95 91 94 95 98 97 100 98 77 69 61 58 61 71 84 97 100 98 90 72 51 52 74 92 56 43 51 58 54 58 67 73 76 85 86 64 63 56 84 68 81 89
Wind_Speed
19 18 17 17 12 12 19 15 10 3 0 6 8 14 9 17 18 6 9 11 10 9 7 6 10 11 12 14 14 14 15 15 15 15 15 15 15 15 14 14 13 13 11 13 14 15 16 17 18
19 18 17 17 16 20 20 19 12 7 7 5 8 13 15 20 21 22 7 11 12 9 9 7 9 12 12 14 15 15 15 16 16 15 15 15 15 14 13 13 12 12 12 12 14 15 15 16 17
19 19 18 15 23 30 21 17 10 6 11 7 7 11 16 16 19 22 8 13 14 13 10 9 9 13 12 12 14 15 15 15 16 16 15 15 15 15 14 13 12 12 12 13 13 15 15 16 17
20 20 21 24 27 20 25 21 13 14 18 8 10 14 18 18 20 19 16 17 13 15 12 11 11 13 13 13 13 14 15 15 16 16 15 15 15 15 14 14 12 11 12 13 13 14 15 15 16
21 23 26 28 30 30 28 22 15 11 15 11 10 17 22 23 23 16 17 20 16 17 15 12 12 13 13 13 13 14 13 14 14 15 15 15 15 15 14 14 13 13 14 14 14 13 14 14 15
23 25 26 32 35 30 29 24 22 20 17 12 12 20 23 22 20 17 20 22 18 17 17 15 14 13 13 14 13 13 13 13 14 14 14 14 14 14 14 13 12 12 14 14 14 14 14 13 13
26 27 34 35 35 32 28 24 25 20 20 16 12 18 21 18 17 16 20 22 20 18 16 16 15 16 16 15 14 14 13 13 14 14 14 13 13 13 13 12 12 12 13 13 13 13 13 13 12
28 29 37 38 37 35 29 24 23 20 21 20 13 14 20 21 18 19 19 23 22 21 19 17 16 17 17 17 17 15 15 14 15 14 14 14 14 13 13 12 11 11 12 11 12 12 11 11 12
29 33 43 43 39 34 31 24 22 20 23 23 19 16 22 25 23 23 19 24 25 23 21 20 18 18 18 18 18 18 18 17 17 16 16 15 14 14 13 13 12 11 11 10 10 10 9 8 8
32 40 46 42 37 33 35 31 27 24 23 25 20 16 24 26 27 21 23 21 27 27 24 23 20 19 19 18 19 18 19 18 18 17 16 16 16 15 15 14 13 13 12 11 9 9 8 7 6
35 46 45 32 20 29 39 39 34 28 26 27 20 19 27 34 31 28 28 26 27 30 27 25 23 21 20 17 17 18 18 18 18 18 18 18 17 17 16 16 15 14 12 11 10 10 9 10 9
39 42 44 44 41 32 32 33 33 35 27 29 23 22 25 34 33 31 31 26 25 28 29 26 25 23 21 20 17 17 17 17 17 17 18 18 18 17 16 16 16 15 15 14 13 13 14 13 12
38 43 47 46 44 46 45 45 41 38 32 29 28 25 24 32 35 35 31 27 25 26 28 28 27 25 23 22 20 17 16 16 16 17 17 17 17 17 17 17 17 17 17 16 16 16 16 15 15
39 45 51 52 50 49 46 46 44 39 35 33 32 27 28 30 33 33 31 29 28 27 27 29 29 27 26 24 22 19 17 17 18 18 18 17 17 18 18 19 18 19 18 18 18 18 18 18 17
39 49 51 51 49 48 44 50 52 44 40 40 37 34 31 29 35 36 30 29 27 25 24 25 28 30 30 28 26 24 21 20 20 19 19 19 19 18 19 19 19 19 20 20 20 19 19 18 18
35 40 43 30 19 29 34 59 53 50 47 42 42 39 36 33 37 36 32 28 26 26 26 26 28 32 33 32 30 28 27 25 22 21 21 21 21 20 20 19 18 19 21 21 20 19 18 18 17
23 33 40 42 18 14 22 52 52 46 47 45 45 42 39 38 37 42 40 34 29 26 26 27 29 32 35 36 34 32 30 28 26 24 24 23 23 23 21 19 19 20 20 19 18 17 16 16 15
29 30 31 34 28 29 21 41 36 30 24 36 49 41 39 42 39 37 44 39 36 31 27 25 25 27 31 38 38 36 36 33 31 28 26 25 24 24 24 23 22 22 20 19 17 16 16 15 15
27 32 37 35 24 24 37 35 31 27 32 39 34 48 37 42 40 35 36 43 37 36 34 31 29 30 31 34 41 41 40 37 35 32 30 29 27 27 27 26 25 24 21 18 18 19 19 17 16
25 30 37 34 26 22 29 42 32 28 25 27 43 44 47 39 42 41 37 43 45 41 38 37 36 31 32 31 32 39 40 41 39 37 34 32 31 30 29 27 28 28 25 23 22 20 19 18 18
28 30 31 30 23 28 29 32 36 25 28 26 27 38 45 46 38 42 43 41 45 44 43 40 38 37 35 32 33 34 36 40 43 44 41 38 37 34 32 31 31 31 30 27 25 23 22 21 22
30 30 26 26 23 12 18 8 9 19 15 21 23 27 27 32 40 40 37 41 42 43 42 38 36 37 37 36 36 34 34 36 39 39 42 42 40 39 37 36 35 34 33 30 30 30 28 28 27
31 17 18 22 23 17 12 3 10 6 5 9 17 27 28 29 35 37 40 40 39 39 45 44 41 42 40 40 40 38 37 34 34 39 38 39 43 43 41 40 39 37 36 33 33 34 34 33 32
14 8 14 22 18 6 12 7 5 9 9 5 4 14 26 24 30 36 38 41 41 42 43 50 47 45 45 46 44 45 45 40 39 42 41 41 42 42 46 44 42 41 40 39 38 36 35 35 34
3 3 2 4 2 4 5 9 0 8 16 15 9 2 14 22 25 28 38 39 38 38 39 44 52 49 44 40 47 49 51 48 47 47 44 44 42 40 40 41 45 45 43 41 42 41 40 38 38
3 5 3 3 4 4 7 10 6 10 17 22 21 15 13 16 21 23 26 29 34 32 37 40 42 46 47 41 36 37 41 46 50 47 46 45 40 38 39 39 40 45 48 46 46 46 45 45 44
5 4 8 8 5 4 8 6 10 10 18 25 24 19 15 16 14 16 20 25 29 32 31 37 38 38 38 39 41 40 39 41 48 49 54 51 46 43 43 44 46 48 45 55 52 50 49 47 47
20 16 3 4 3 3 8 9 17 20 18 20 25 22 17 15 16 14 12 14 18 27 33 35 35 33 36 38 36 39 43 43 46 50 54 48 49 51 53 48 49 49 51 42 51 51 44 44 45
29 35 13 4 6 3 4 4 17 18 20 15 20 15 17 14 14 13 13 13 12 12 19 25 34 35 35 33 31 32 35 38 37 39 42 53 53 55 57 63 42 31 41 44 61 72 57 33 33
20 24 21 7 5 4 3 3 17 16 19 11 16 19 10 16 14 9 10 9 9 11 14 16 20 23 28 32 34 37 37 41 43 42 43 46 46 48 52 33 31 40 42 42 37 39 43 30 31
Wind_Direction
252 251 253 253 246 237 247 246 231 241 44 345 300 212 224 251 270 265 290 187 162 176 134 119 152 157 166 169 172 168 162 159 156 153 150 146 143 140 136 137 136 136 135 132 129 125 127 126 127
249 248 249 248 238 232 244 255 241 232 269 307 299 226 214 245 251 251 212 175 150 168 133 121 148 153 164 168 170 170 167 162 157 155 152 146 142 139 139 139 140 141 141 138 134 132 129 127 124
246 243 245 242 244 239 243 236 184 245 268 285 266 212 215 242 261 248 260 194 155 168 146 131 150 149 162 170 171 171 168 165 160 157 154 149 145 143 142 141 142 141 139 136 134 132 130 129 124
248 242 242 241 240 246 245 242 221 250 253 240 224 226 232 232 248 252 236 218 168 168 154 143 153 147 162 170 174 173 171 167 162 158 156 151 148 145 143 143 141 137 133 131 130 129 128 127 128
253 245 242 246 247 249 253 251 253 240 243 210 218 207 215 222 240 256 224 216 188 171 161 154 158 153 162 171 176 176 175 170 166 161 158 154 151 149 149 147 144 136 132 131 131 129 125 125 125
249 243 243 245 251 254 254 254 256 247 242 236 214 206 213 221 232 228 202 209 194 183 167 163 164 165 167 174 179 183 178 175 170 166 163 159 156 154 153 152 147 139 137 136 133 131 128 125 124
245 250 248 254 257 256 257 256 255 251 243 245 223 215 207 217 212 206 207 206 198 181 184 173 173 174 174 177 183 188 187 184 178 173 169 165 162 160 159 157 153 146 144 141 137 135 132 128 125
244 248 254 251 252 257 259 258 257 251 244 248 233 220 202 209 223 214 201 208 203 189 187 189 183 184 182 180 185 192 194 194 190 186 181 176 173 170 167 166 165 159 153 152 148 145 142 141 142
243 246 252 255 255 251 259 257 258 248 243 244 235 229 203 206 219 219 212 207 209 203 194 195 193 194 192 187 187 193 197 200 200 198 195 191 187 185 181 178 178 177 172 169 167 162 160 161 157
241 246 254 257 257 263 261 257 256 247 236 238 240 229 209 205 209 224 228 229 219 216 205 197 198 201 202 198 195 197 199 202 204 206 206 203 200 198 197 195 194 194 194 191 193 193 189 193 197
242 249 245 253 260 256 256 255 251 248 236 235 231 237 215 205 209 220 226 237 232 217 211 202 199 203 209 208 204 202 204 205 206 209 208 210 211 211 209 208 209 210 212 213 216 221 223 224 229
246 250 254 255 247 244 252 257 252 242 235 231 231 237 214 212 211 218 217 220 226 225 220 212 206 207 210 211 209 209 208 209 209 209 210 214 217 219 220 219 219 218 218 221 226 230 234 237 244
249 251 249 252 254 250 248 253 253 242 232 225 229 236 218 205 208 208 211 206 216 222 226 220 217 214 214 213 210 206 208 211 215 215 216 218 219 222 224 225 226 227 227 227 229 234 241 246 250
250 251 250 249 249 249 250 245 250 233 237 232 223 223 222 206 196 204 208 208 208 217 224 226 225 223 221 216 211 207 207 213 220 221 220 219 219 221 223 226 228 230 233 235 236 238 241 245 250
261 258 250 251 255 254 252 252 244 228 241 235 229 207 220 211 202 200 205 208 206 207 215 224 232 232 228 224 216 208 209 214 220 222 225 219 218 221 224 226 230 232 234 236 240 244 248 252 255
277 265 271 258 267 263 262 254 247 244 252 242 241 230 212 215 210 204 201 204 209 213 216 221 227 231 231 232 226 216 212 214 219 224 224 223 218 220 224 227 228 233 235 237 238 242 246 249 252
289 280 270 267 256 280 263 254 252 255 252 247 247 243 230 215 216 209 206 206 217 221 215 217 223 227 229 230 232 227 222 221 220 224 227 223 222 221 222 225 225 230 234 238 239 240 241 243 247
296 289 282 272 278 248 248 255 263 258 256 252 244 249 245 229 220 219 214 207 209 214 211 209 213 221 229 228 231 232 228 225 225 225 229 226 224 224 225 222 224 231 234 234 235 236 238 238 240
287 284 276 276 270 264 251 262 266 265 254 239 240 240 243 239 222 227 221 209 212 209 206 205 208 213 222 228 227 229 230 228 228 228 231 232 229 228 226 225 223 228 234 231 228 228 232 231 237
279 277 276 274 285 263 267 262 262 264 254 250 244 238 235 235 229 220 226 221 216 211 210 212 212 211 216 224 230 232 235 237 236 235 236 240 241 237 234 230 228 228 228 224 224 227 228 223 228
277 268 267 262 283 238 275 282 255 262 265 259 247 246 240 239 227 219 224 228 224 222 217 223 230 223 217 219 225 229 232 233 235 235 235 237 241 243 239 235 232 231 230 221 219 221 221 221 225
282 269 260 261 262 248 237 301 254 250 272 253 255 247 251 249 241 228 218 225 226 230 237 234 232 233 229 223 223 228 233 239 243 245 243 242 242 245 246 243 238 233 233 227 220 220 221 224 227
291 292 254 245 249 264 227 248 346 253 182 228 229 230 240 239 236 232 222 223 223 228 233 236 236 238 237 237 234 234 235 242 245 243 243 244 245 245 247 247 246 240 236 236 232 228 228 231 237
279 271 247 240 240 256 216 171 0 44 28 36 267 233 228 235 233 234 227 218 220 224 227 234 238 240 241 239 241 244 246 247 246 248 244 243 245 245 245 243 246 247 243 240 242 242 240 242 245
268 214 189 222 196 241 188 175 107 56 91 86 90 178 218 237 238 233 232 234 224 221 226 233 238 243 245 243 244 245 245 246 249 242 244 244 247 250 251 247 245 245 246 245 245 246 248 249 252
296 226 239 235 176 215 216 176 79 108 105 104 99 109 160 210 230 233 234 234 234 231 230 227 228 232 236 237 235 237 242 245 246 243 242 241 244 247 247 247 247 244 244 243 243 245 248 251 253
350 347 261 296 300 151 160 128 121 94 129 123 105 110 126 135 166 204 220 222 227 234 232 227 224 221 225 233 237 240 243 241 239 241 239 241 242 246 247 247 248 244 239 234 235 239 244 252 254
36 24 1 2 14 318 94 47 352 16 37 112 107 98 107 113 117 134 174 197 214 222 228 226 229 231 230 233 238 242 246 248 243 241 244 250 244 247 249 248 256 257 244 260 242 234 244 248 249
24 28 16 19 22 344 14 30 16 16 34 48 80 89 93 116 118 105 113 122 130 159 205 216 224 229 229 230 237 240 239 246 252 253 245 243 246 249 252 246 281 270 268 269 262 248 254 243 248
26 16 23 10 349 73 123 54 19 14 15 42 44 76 125 134 134 129 115 131 153 144 158 178 196 212 221 226 229 232 234 240 246 251 250 251 255 257 263 274 252 252 256 257 266 274 295 280 262